Back to catalog

STARLINK-4168

AliveCommunicationsVLEO
NORAD 52845·PAYLOAD·🇺🇸 United States

Launched Jun 17, 2022 from Cape Canaveral Space Force Station

Loading…

Next Passes (next 24 hours)

TLE

FreshSource: CelesTrak SupGP

Epoch: Sep 14, 2026, 20:32 UTC

1 52845C 22062R   26257.85604167  .00043789  00000+0  14084-2 0  2571
2 52845  53.1563 255.1047 0001249  91.9302  71.4223 15.31673821    10

Track STARLINK-4168 in real time with AllMySat

Download on the App Store